Regional Weather Roundup
Issued by NWS Little Rock, AR

Home | Current Version | Previous Version | Graphics & Text | Print | Product List | Glossary On
Versions: 1 2 3 4 5 6 7 8 9 10 11 12 13 14 15 16 17 18 19 20 21 22 23 24 25 26 27 28 29 30 31 32 33 34 35 36 37 38 39 40 41 42 43 44 45 46 47 48 49 50
000
ASUS44 KLZK 241805
RWRLZK

WEATHER ROUNDUP FOR ARKANSAS
NATIONAL WEATHER SERVICE LITTLE ROCK AR
100 PM CDT SUN MAY 24 2015

NOTE: "FAIR" INDICATES FEW OR NO CLOUDS BELOW 12,000 FEET WITH NO
SIGNIFICANT WEATHER AND/OR OBSTRUCTIONS TO VISIBILITY.

ARZ001-003-010-029-241900-
NORTHWEST ARKANSAS

CITY           SKY/WX    TMP DP  RH WIND       PRES   REMARKS
FAYETTEVILLE   HVY RAIN  64  63  96 S7        29.96S FOG
6HR MIN TEMP:  64; 6HR MAX TEMP:  70; 6HR PCP:  0.52;

FORT SMITH     LGT RAIN  65  61  87 W6        29.95S FOG
6HR MIN TEMP:  65; 6HR MAX TEMP:  72; 6HR PCP:  1.81;

HARRISON       CLOUDY    74  67  78 S8        29.97S
6HR MIN TEMP:  68; 6HR MAX TEMP:  76; 6HR PCP: TRACE;

BENTONVILLE    CLOUDY    66  63  88 W8        29.96S
6HR MIN TEMP:  64; 6HR MAX TEMP:  70; 6HR PCP:  0.08;

ROGERS         RAIN      66  64  94 SW7       29.96S
6HR MIN TEMP:  65; 6HR MAX TEMP:  70;

SILOAM SPGS    CLOUDY    66  59  77 W5        29.96F
6HR MIN TEMP:  63; 6HR MAX TEMP:  68; 6HR PCP:  0.64;

HIGHFILL       LGT RAIN  67  64  90 W7        29.95S FOG
6HR MIN TEMP:  64; 6HR MAX TEMP:  69; 6HR PCP:  0.46;

SPRINGDALE     RAIN      64  63  94 S14       29.98R FOG
$$

ARZ004-005-016-241900-
NORTH CENTRAL ARKANSAS

CITY           SKY/WX    TMP DP  RH WIND       PRES   REMARKS
BATESVILLE     PTSUNNY   81  68  65 SE16      30.00S
6HR MIN TEMP:  70; 6HR MAX TEMP:  81; 6HR PCP:  0.33;

FLIPPIN        PTSUNNY   81  66  61 S10G18    29.94F
6HR MIN TEMP:  68; 6HR MAX TEMP:  81; 6HR PCP:  0.04;

MTN HOME       PTSUNNY   79  65  62 S15G26    29.96F
6HR MIN TEMP:  67; 6HR MAX TEMP:  80; 6HR PCP:  0.05;

$$

ARZ040-041-241900-
WEST CENTRAL ARKANSAS

CITY           SKY/WX    TMP DP  RH WIND       PRES   REMARKS
MENA           CLOUDY    75  70  83 S7        29.95F
MOUNT IDA      CLOUDY    78  69  73 VRB5G17   29.93F
6HR MIN TEMP:  73; 6HR MAX TEMP:  78;

$$

ARZ009-017-025-026-028-241900-
NORTHEAST ARKANSAS

CITY           SKY/WX    TMP DP  RH WIND       PRES   REMARKS
CORNING          N/A     82  68  61 S20G26    30.03F HX  85
JONESBORO      PTSUNNY   82  69  64 S20G28    30.03F HX  85
6HR MIN TEMP:  70; 6HR MAX TEMP:  82;

NEWPORT        PTSUNNY   84  70  63 S22       30.01F HX  88
6HR MIN TEMP:  70; 6HR MAX TEMP:  84;

WALNUT RIDGE   MOSUNNY   82  66  57 S24       30.02S HX  85
6HR MIN TEMP:  70; 6HR MAX TEMP:  82;

BLYTHEVILLE    PTSUNNY   84  66  54 S20G29    30.07F HX  86
6HR MIN TEMP:  71; 6HR MAX TEMP:  84;

$$

ARZ022-023-033-042-044-241900-
CENTRAL ARKANSAS

CITY           SKY/WX    TMP DP  RH WIND       PRES   REMARKS
LITTLE ROCK    CLOUDY    81  68  64 S13       29.98F
6HR MIN TEMP:  74; 6HR MAX TEMP:  82;

N LITTLE ROCK  PTSUNNY   81  72  74 S12G21    29.98F HX  85
6HR MIN TEMP:  72; 6HR MAX TEMP:  81;

JACKSONVILLE   CLOUDY    82  70  66 SE7G22    29.97F HX  86
6HR MIN TEMP:  72; 6HR MAX TEMP:  83;

SEARCY         CLOUDY    80  71  74 S15G21    30.01F
6HR MIN TEMP:  73; 6HR MAX TEMP:  82;

HOT SPRINGS    CLOUDY    80  69  69 S12G18    29.97S
6HR MIN TEMP:  73; 6HR MAX TEMP:  80;

RUSSELLVILLE   CLOUDY    80  69  69 VRB5      29.94F
6HR MIN TEMP:  72; 6HR MAX TEMP:  81; 6HR PCP: TRACE;

CLINTON        FAIR      81  70  69 SE10G17   29.99F
$$

ARZ036-241900-
EAST ARKANSAS

CITY           SKY/WX    TMP DP  RH WIND       PRES   REMARKS
WEST MEMPHIS   PTSUNNY   81  70  69 S16G26    30.04F
6HR MIN TEMP:  70; 6HR MAX TEMP:  83;

$$

ARZ050-053-066-070-073-241900-
SOUTHWEST ARKANSAS

CITY           SKY/WX    TMP DP  RH WIND       PRES   REMARKS
ARKADELPHIA    MOCLDY    82  73  74 S13       29.95F HX  87
6HR MIN TEMP:  73; 6HR MAX TEMP:  82;

CAMDEN         CLOUDY    82  68  61 NE16      29.96F HX  85
TEXARKANA      CLOUDY    76  70  82 SE8       29.89F
6HR MIN TEMP:  73; 6HR MAX TEMP:  78;

EL DORADO      CLOUDY    83  71  67 SE14G22   29.96F HX  87
6HR MIN TEMP:  73; 6HR MAX TEMP:  83;

DE QUEEN       CLOUDY    76  71  85 SE6       29.90F
6HR MIN TEMP:  73; 6HR MAX TEMP:  77; 6HR PCP:  0.01;

$$

ARZ056-057-069-241900-
SOUTHEAST ARKANSAS

CITY           SKY/WX    TMP DP  RH WIND       PRES   REMARKS
PINE BLUFF     PTSUNNY   84  70  62 S20       29.99F HX  88
6HR MIN TEMP:  73; 6HR MAX TEMP:  84;

STUTTGART      CLOUDY    82  70  65 S18G28    30.01S HX  86
6HR MIN TEMP:  72; 6HR MAX TEMP:  82;

MONTICELLO     CLOUDY    81  71  71 S14G23    30.01F HX  85
6HR MIN TEMP:  70; 6HR MAX TEMP:  82;


$$





USA.gov is the U.S. government's official web portal to all federal, state and local government web resources and services.